Weather Roundup
Issued by NWS Chicago, IL

Home | Current Version | Previous Version | Graphics & Text | Print | Product List | Glossary On
Versions: 1 2 3 4 5 6 7 8 9 10 11 12 13 14 15 16 17 18 19 20 21 22 23 24 25 26 27 28 29 30 31 32 33 34 35 36 37 38 39 40 41 42 43 44 45 46 47 48 49 50
842
NZUS59 KLOT 052108
HRRLOT

CHICAGO AREA WEATHER ROUNDUP
NATIONAL WEATHER SERVICE CHICAGO/ROMEOVILLE IL
300 PM CST MON DEC 05 2016

NOTE: "FAIR" INDICATES FEW OR NO CLOUDS BELOW 12,000 FEET WITH NO
SIGNIFICANT WEATHER AND/OR OBSTRUCTIONS TO VISIBILITY.

* THESE STATIONS ARE NOT UNDER NWS QUALITY CONTROL. THEY ALSO MAY NOT
  REPORT WEATHER SUCH AS PRECIPITATION OR FOG.

ILZ005-006-012>014-019>023-052200-
NORTHEAST ILLINOIS

CITY           SKY/WX    TMP DP  RH WIND       PRES   REMARKS
OHARE          CLOUDY    32  30  92 S9        30.00S FOG     WCI  24
MIDWAY         CLOUDY    34  30  85 S10G20    30.01F FOG     WCI  26
AURORA         CLOUDY    33  31  92 S12       30.00S FOG     WCI  24
LANSING*       CLOUDY    32  32 100 S9        30.02F WCI  24
JOLIET*        CLOUDY    34  33  95 S7        30.02R WCI  28
WAUKEGAN       CLOUDY    33  31  92 S9        30.00R FOG     WCI  25
DUPAGE AIRPORT CLOUDY    32  30  92 S9        29.99S FOG     WCI  24
WHEELING       CLOUDY    32  30  92 S7        30.02R WCI  26
KANKAKEE*      CLOUDY    33  31  94 CALM      30.02S
MORRIS*        CLOUDY    32  31  95 SE8       30.00S FOG     WCI  25
LEWIS AIRPORT* CLOUDY    32  32 100 S9        30.01S FOG     WCI  24
NORTHERLY ISL    N/A     33  31  92 S9          N/A  WCI  25
$$

WIZ051-052-058>065-066-070>072-052200-
SOUTHEAST WISCONSIN

CITY           SKY/WX    TMP DP  RH WIND       PRES   REMARKS
MILWAUKEE      CLOUDY    34  31  88 S13       29.98R FOG     WCI  25
KENOSHA*       CLOUDY    33  31  92 S9        29.98R FOG     WCI  25
RACINE*        CLOUDY    33  30  88 SW9       30.01R FOG     WCI  25
BURLINGTON     CLOUDY    32  31  96 S5        29.98R FOG     WCI  27
WAUKESHA       CLOUDY    30  30 100 S6        29.98R FOG     WCI  24
WEST BEND      CLOUDY    32  32 100 S7        29.96R FOG     WCI  26
$$

INZ001>003-010>013-019-020-052200-
NORTHWEST INDIANA

CITY           SKY/WX    TMP DP  RH WIND       PRES   REMARKS
GARY*          CLOUDY    34  32  93 VRB3      30.02F
MICHIGAN CITY* NOT AVBL
RENSSELAER*    NOT AVBL
VALPARAISO     CLOUDY    33  30  88 S6        30.03F WCI  28
$$

LMZ740>746-052200-
SOUTHERN LAKE MICHIGAN

STATION/POSITION TIME  SKY/WX   TEMP WIND        PRES    VSBY
                                AIR  DIR/SP/G
                 (UTC)          (F)  (DEG/KT/KT) (MB)    (MI)
HARRISON CRIB    2040            34  190/ 18/ 20   N/A
BURNHAM HARBOR   2100            33  180/ 10/ 13   N/A
CALUMET HARBOR   2042            33  190/  8/ 15 1015.8F
BURNS HARBOR     2040            33  200/ 14/ 16 1017.3S
MICHIGAN CITY    NOT AVBL
$$

ABBREVIATIONS USED IN REMARKS
   TC - TEMPERATURE IN CELSIUS
  WCI - WIND CHILL INDEX
   HX - HEAT INDEX
  VSB - VISIBILITY
$$




USA.gov is the U.S. government's official web portal to all federal, state and local government web resources and services.